Flag for U.S.A. Weather past 2 weeks in Greeley, Colorado, U.S.A.

Now
86 °F

Sunny.


Feels Like: 84 °F
Forecast: 60 / 86 °F
Wind: 6 mph from East

Location: Greeley / Weld

Current Time: Aug 20, 2014 at 3:37:44 PM

Latest Report: Aug 20, 2014 at 2:55 PM


Visibility: 10 mi

Pressure: 29.90 "Hg

Humidity: 29%

Dew point: 50 °F

Location of GreeleyLocation

Historic Weather in Greeley — Graph

°F

Greeley temperature yesterday

Maximum temperature yesterday: 90 °F (at 2:55 PM)
Minimum temperature yesterday: 54 °F (at 3:55 AM)
Average temperature yesterday: 68 °F

Past Weeks' High & Low Weather Summary

 TemperatureHumidityPressure
High95 °F (Aug 17, 5:15 PM)83% (Aug 14, 11:55 PM)30.36 "Hg (Aug 14, 11:55 PM)
Low52 °F (Aug 8, 4:35 AM)13% (Aug 17, 5:15 PM)29.85 "Hg (Aug 19, 5:55 PM)
Average70 °F53%30.12 "Hg
* Reported Aug 5 2:15 PM — Aug 20 2:35 PM, Greeley, Weather by CustomWeather, © 2014

Note: Actual official high and low records may vary slightly from our data, if they occured in-between our weather recording intervals... More about our weather records

Advertising

Greeley weather history for previous 24 hours

 ConditionsComfort  
Time TempWeatherWind HumidityBarometerVisibility
2:35 PM
Aug 20
86 °FSunny.6 mph29%29.90 "Hg10 mi
2:15 PM86 °FSunny.8 mph29%29.91 "Hg10 mi
1:55 PM88 °FSunny.3 mph29%29.91 "Hg10 mi
1:35 PM86 °FSunny.5 mph29%29.91 "Hg10 mi
1:15 PM84 °FSunny.No wind33%29.91 "Hg10 mi
12:55 PM84 °FSunny.No wind29%29.92 "Hg10 mi
12:35 PM84 °FSunny.No wind33%29.92 "Hg10 mi
11:55 AM84 °FSunny.6 mph35%29.92 "Hg10 mi
11:35 AM82 °FSunny.3 mph37%29.92 "Hg10 mi
11:15 AM81 °FSunny.5 mph39%29.93 "Hg10 mi
10:55 AM82 °FSunny.5 mph40%29.93 "Hg10 mi
10:35 AM82 °FSunny.9 mph37%29.93 "Hg10 mi
10:15 AM81 °FSunny.8 mph42%29.93 "Hg10 mi
9:55 AM79 °FSunny.6 mph45%29.93 "Hg10 mi
9:35 AM75 °FSunny.3 mph47%29.93 "Hg10 mi
9:15 AM72 °FSunny.5 mph53%29.92 "Hg10 mi
8:55 AM72 °FSunny.3 mph50%29.92 "Hg10 mi
8:35 AM72 °FSunny.No wind53%29.92 "Hg10 mi
8:15 AM66 °FSunny.3 mph60%29.92 "Hg10 mi
7:55 AM66 °FSunny.3 mph60%29.92 "Hg10 mi
7:35 AM64 °FSunny.No wind64%29.92 "Hg10 mi
7:15 AM63 °FSunny.No wind68%29.90 "Hg10 mi
6:55 AM61 °FClear.3 mph68%29.90 "Hg10 mi
6:35 AM59 °FClear.7 mph68%29.90 "Hg10 mi
5:55 AM61 °FClear.8 mph72%29.89 "Hg10 mi
5:35 AM63 °FClear.6 mph68%29.88 "Hg10 mi
5:15 AM63 °FClear.6 mph68%29.88 "Hg10 mi
4:55 AM63 °FClear.9 mph68%29.88 "Hg10 mi
4:35 AM63 °FClear.5 mph68%29.88 "Hg10 mi
4:15 AM63 °FPassing clouds.No wind68%29.89 "Hg10 mi
3:55 AM63 °FPassing clouds.No wind68%29.88 "Hg10 mi
3:35 AM63 °FClear.3 mph68%29.89 "Hg10 mi
3:15 AM63 °FClear.No wind68%29.90 "Hg10 mi
2:55 AM63 °FClear.6 mph68%29.89 "Hg10 mi
2:35 AM63 °FClear.6 mph68%29.90 "Hg10 mi
2:15 AM63 °FClear.6 mph73%29.89 "Hg10 mi
1:55 AM63 °FClear.No wind68%29.90 "Hg10 mi
1:35 AM63 °FClear.No wind68%29.89 "Hg10 mi
1:15 AM63 °FClear.No wind68%29.89 "Hg10 mi
12:55 AM63 °FClear.No wind68%29.90 "Hg10 mi
12:35 AM63 °FClear.5 mph68%29.91 "Hg10 mi
12:15 AM63 °FClear.5 mph68%29.90 "Hg10 mi
11:55 PM
Aug 19
63 °FClear.7 mph68%29.91 "Hg10 mi
11:35 PM64 °FClear.7 mph64%29.91 "Hg10 mi
11:15 PM64 °FClear.7 mph64%29.91 "Hg9 mi
10:55 PM64 °FPassing clouds.8 mph64%29.91 "Hg6 mi
10:35 PM64 °FPassing clouds.3 mph64%29.91 "Hg10 mi
10:15 PM64 °FClear.7 mph64%29.91 "Hg10 mi
9:55 PM64 °FClear.No wind60%29.90 "Hg10 mi
9:35 PM64 °FPassing clouds.No wind64%29.90 "Hg10 mi
9:15 PM66 °FPassing clouds.No wind60%29.90 "Hg8 mi
8:55 PM68 °FClear.No wind56%29.90 "Hg6 mi
8:35 PM70 °FSunny.5 mph50%29.89 "Hg10 mi
8:15 PM70 °FSunny.No wind46%29.89 "Hg10 mi
7:55 PM72 °FSunny.No wind47%29.89 "Hg10 mi
7:35 PM75 °FSunny.3 mph39%29.89 "Hg10 mi
7:15 PM75 °FSunny.10 mph41%29.90 "Hg10 mi
6:55 PM77 °FSunny.10 mph39%29.90 "Hg10 mi
6:35 PM81 °FSunny.15 mph32%29.90 "Hg10 mi
6:15 PM81 °FSunny.7 mph32%29.87 "Hg10 mi
5:55 PM81 °FSunny.15 mph32%29.85 "Hg10 mi
5:35 PM81 °FSunny.10 mph32%29.86 "Hg10 mi
5:15 PM82 °FSunny.13 mph30%29.87 "Hg10 mi
4:55 PM84 °FSunny.20 mph27%29.87 "Hg10 mi
4:35 PM84 °FSunny.17 mph37%29.87 "Hg10 mi
4:15 PM84 °FSunny.13 mph37%29.87 "Hg10 mi
3:55 PM88 °FSunny.14 mph29%29.87 "Hg10 mi
3:35 PM88 °FSunny.7 mph25%29.87 "Hg10 mi
Weather by CustomWeather, © 2014

See weather overviewHow to use our weather pages